{"data":{"norad_id":64066,"intl_designator":"2025-107C","name":"STARLINK-11737 [DTC]","alt_names":[],"object_type":"PAYLOAD","status":"ACTIVE","operator":null,"country":"US","launch_date":"2025-05-21","launch_site_code":"AFETR","launch_vehicle":null,"mission":null,"orbit_class":"UNKNOWN","rcs_meters":null,"size_class":null,"mass_kg":null,"dimensions":null,"purposes":["comms"],"wikipedia_slug":null,"has_3d_model":false,"image_url":null,"decayed_at":null,"tle_current":{"epoch":"2026-09-20T08:30:24.946560Z","epoch_age_seconds":156251,"freshness":"FRESH","line1":"1 64066U 25107C   26263.35445540  .00156254  00000+0  11952-2 0  9998","line2":"2 64066  42.9994   4.8682 0002043 271.6214  88.4419 15.70903937 77913","mean_motion":15.70903937,"eccentricity":0.0002043,"inclination_deg":42.9994,"raan_deg":4.8682,"arg_perigee_deg":271.6214,"mean_anomaly_deg":88.4419,"bstar":0.0011952,"rev_number":7791,"period_min":91.66696741177,"perigee_km":354.9364758579,"apogee_km":357.68817185162,"semimajor_km":6734.4493238548,"source":"CELESTRAK","updated_at":"2026-09-21T09:00:35.191926Z"}}}